Year,Month,Day,Hour,Minute,Value (Times are PST for temperature in C)
2007,07,11,00,00,26.40
2007,07,11,00,01,26.40
2007,07,11,00,02,26.40
2007,07,11,00,03,26.30
2007,07,11,00,04,26.30
2007,07,11,00,05,26.30
2007,07,11,00,06,26.20
2007,07,11,00,07,26.20
2007,07,11,00,08,26.10
2007,07,11,00,09,26.10
2007,07,11,00,10,26.10
2007,07,11,00,11,26.10
2007,07,11,00,12,26.10
2007,07,11,00,13,26.10
2007,07,11,00,14,26.10
2007,07,11,00,15,26.00
2007,07,11,00,16,26.00
2007,07,11,00,17,26.00
2007,07,11,00,18,26.00
2007,07,11,00,19,26.00
2007,07,11,00,20,25.90
2007,07,11,00,21,25.90
2007,07,11,00,22,25.90
2007,07,11,00,23,25.80
2007,07,11,00,24,25.80
2007,07,11,00,25,25.70
2007,07,11,00,26,25.70
2007,07,11,00,27,25.70
2007,07,11,00,28,25.60
2007,07,11,00,29,25.60
2007,07,11,00,30,25.50
2007,07,11,00,31,25.50
2007,07,11,00,32,25.50
2007,07,11,00,33,25.50
2007,07,11,00,34,25.40
2007,07,11,00,35,25.40
2007,07,11,00,36,25.40
2007,07,11,00,37,25.40
2007,07,11,00,38,25.30
2007,07,11,00,39,25.30
2007,07,11,00,40,25.30
2007,07,11,00,41,25.30
2007,07,11,00,42,25.30
2007,07,11,00,43,25.30
2007,07,11,00,44,25.30
2007,07,11,00,45,25.20
2007,07,11,00,46,25.20
2007,07,11,00,47,25.20
2007,07,11,00,48,25.20
2007,07,11,00,49,25.20
2007,07,11,00,50,25.20
2007,07,11,00,51,25.20
2007,07,11,00,52,25.20
2007,07,11,00,53,25.10
2007,07,11,00,54,25.10
2007,07,11,00,55,25.10
2007,07,11,00,56,25.10
2007,07,11,00,57,25.00
2007,07,11,00,58,25.00
2007,07,11,00,59,25.00
2007,07,11,01,00,25.00
2007,07,11,01,01,25.00
2007,07,11,01,02,24.90
2007,07,11,01,03,24.90
2007,07,11,01,04,24.90
2007,07,11,01,05,24.80
2007,07,11,01,06,24.80
2007,07,11,01,07,24.80
2007,07,11,01,08,24.80
2007,07,11,01,09,24.80
2007,07,11,01,10,24.80
2007,07,11,01,11,24.80
2007,07,11,01,12,24.90
2007,07,11,01,13,25.00
2007,07,11,01,14,25.00
2007,07,11,01,15,25.00
2007,07,11,01,16,25.00
2007,07,11,01,17,25.00
2007,07,11,01,18,25.00
2007,07,11,01,19,25.00
2007,07,11,01,20,25.00
2007,07,11,01,21,25.00
2007,07,11,01,22,24.90
2007,07,11,01,23,24.90
2007,07,11,01,24,24.90
2007,07,11,01,25,24.90
2007,07,11,01,26,24.90
2007,07,11,01,27,24.90
2007,07,11,01,28,24.90
2007,07,11,01,29,24.90
2007,07,11,01,30,24.90
2007,07,11,01,31,24.90
2007,07,11,01,32,24.90
2007,07,11,01,33,24.80
2007,07,11,01,34,24.70
2007,07,11,01,35,24.60
2007,07,11,01,36,24.60
2007,07,11,01,37,24.50
2007,07,11,01,38,24.50
2007,07,11,01,39,24.40
2007,07,11,01,40,24.30
2007,07,11,01,41,24.20
2007,07,11,01,42,24.10
2007,07,11,01,43,24.10
2007,07,11,01,44,24.10
2007,07,11,01,45,24.00
2007,07,11,01,46,23.90
2007,07,11,01,47,23.90
2007,07,11,01,48,23.90
2007,07,11,01,49,23.90
2007,07,11,01,50,23.90
2007,07,11,01,51,23.90
2007,07,11,01,52,23.90
2007,07,11,01,53,23.90
2007,07,11,01,54,23.90
2007,07,11,01,55,23.90
2007,07,11,01,56,23.80
2007,07,11,01,57,23.80
2007,07,11,01,58,23.80
2007,07,11,01,59,23.80
2007,07,11,02,00,23.80
2007,07,11,02,01,23.80
2007,07,11,02,02,23.80
2007,07,11,02,03,23.80
2007,07,11,02,04,23.80
2007,07,11,02,05,23.80
2007,07,11,02,06,23.80
2007,07,11,02,07,23.80
2007,07,11,02,08,23.80
2007,07,11,02,09,23.80
2007,07,11,02,10,23.80
2007,07,11,02,11,23.80
2007,07,11,02,12,23.90
2007,07,11,02,13,23.90
2007,07,11,02,14,23.90
2007,07,11,02,15,23.90
2007,07,11,02,16,23.90
2007,07,11,02,17,24.00
2007,07,11,02,18,24.10
2007,07,11,02,19,24.10
2007,07,11,02,20,24.10
2007,07,11,02,21,24.10
2007,07,11,02,22,24.20
2007,07,11,02,23,24.30
2007,07,11,02,24,24.40
2007,07,11,02,25,24.40
2007,07,11,02,26,24.50
2007,07,11,02,27,24.50
2007,07,11,02,28,24.50
2007,07,11,02,29,24.50
2007,07,11,02,30,24.40
2007,07,11,02,31,24.40
2007,07,11,02,32,24.40
2007,07,11,02,33,24.40
2007,07,11,02,34,24.30
2007,07,11,02,35,24.20
2007,07,11,02,36,24.20
2007,07,11,02,37,24.10
2007,07,11,02,38,24.10
2007,07,11,02,39,24.10
2007,07,11,02,40,24.00
2007,07,11,02,41,23.90
2007,07,11,02,42,23.90
2007,07,11,02,43,23.90
2007,07,11,02,44,23.90
2007,07,11,02,45,23.90
2007,07,11,02,46,23.90
2007,07,11,02,47,23.90
2007,07,11,02,48,23.80
2007,07,11,02,49,23.80
2007,07,11,02,50,23.70
2007,07,11,02,51,23.70
2007,07,11,02,52,23.50
2007,07,11,02,53,23.40
2007,07,11,02,54,23.30
2007,07,11,02,55,23.20
2007,07,11,02,56,23.10
2007,07,11,02,57,22.90
2007,07,11,02,58,22.80
2007,07,11,02,59,22.70
2007,07,11,03,00,22.60
2007,07,11,03,01,22.50
2007,07,11,03,02,22.30
2007,07,11,03,03,22.20
2007,07,11,03,04,22.10
2007,07,11,03,05,22.10
2007,07,11,03,06,22.00
2007,07,11,03,07,21.90
2007,07,11,03,08,21.90
2007,07,11,03,09,21.80
2007,07,11,03,10,21.80
2007,07,11,03,11,21.70
2007,07,11,03,12,21.70
2007,07,11,03,13,21.70
2007,07,11,03,14,21.60
2007,07,11,03,15,21.60
2007,07,11,03,16,21.60
2007,07,11,03,17,21.60
2007,07,11,03,18,21.60
2007,07,11,03,19,21.40
2007,07,11,03,20,21.40
2007,07,11,03,21,21.40
2007,07,11,03,22,21.40
2007,07,11,03,23,21.40
2007,07,11,03,24,21.30
2007,07,11,03,25,21.30
2007,07,11,03,26,21.30
2007,07,11,03,27,21.30
2007,07,11,03,28,21.30
2007,07,11,03,29,21.30
2007,07,11,03,30,21.30
2007,07,11,03,31,21.30
2007,07,11,03,32,21.30
2007,07,11,03,33,21.30
2007,07,11,03,34,21.30
2007,07,11,03,35,21.30
2007,07,11,03,36,21.30
2007,07,11,03,37,21.30
2007,07,11,03,38,21.20
2007,07,11,03,39,21.20
2007,07,11,03,40,21.20
2007,07,11,03,41,21.20
2007,07,11,03,42,21.20
2007,07,11,03,43,21.20
2007,07,11,03,44,21.20
2007,07,11,03,45,21.20
2007,07,11,03,46,21.20
2007,07,11,03,47,21.20
2007,07,11,03,48,21.20
2007,07,11,03,49,21.20
2007,07,11,03,50,21.20
2007,07,11,03,51,21.20
2007,07,11,03,52,21.20
2007,07,11,03,53,21.20
2007,07,11,03,54,21.20
2007,07,11,03,55,21.10
2007,07,11,03,56,21.10
2007,07,11,03,57,21.10
2007,07,11,03,58,21.10
2007,07,11,03,59,21.10
2007,07,11,04,00,21.00
2007,07,11,04,01,21.00
2007,07,11,04,02,21.00
2007,07,11,04,03,21.00
2007,07,11,04,04,21.00
2007,07,11,04,05,21.10
2007,07,11,04,06,21.10
2007,07,11,04,07,21.10
2007,07,11,04,08,21.10
2007,07,11,04,09,21.10
2007,07,11,04,10,21.00
2007,07,11,04,11,21.00
2007,07,11,04,12,21.00
2007,07,11,04,13,21.00
2007,07,11,04,14,20.90
2007,07,11,04,15,20.90
2007,07,11,04,16,20.80
2007,07,11,04,17,20.80
2007,07,11,04,18,20.70
2007,07,11,04,19,20.70
2007,07,11,04,20,20.70
2007,07,11,04,21,20.60
2007,07,11,04,22,20.60
2007,07,11,04,23,20.60
2007,07,11,04,24,20.60
2007,07,11,04,25,20.60
2007,07,11,04,26,20.50
2007,07,11,04,27,20.50
2007,07,11,04,28,20.50
2007,07,11,04,29,20.50
2007,07,11,04,30,20.50
2007,07,11,04,31,20.50
2007,07,11,04,32,20.40
2007,07,11,04,33,20.40
2007,07,11,04,34,20.40
2007,07,11,04,35,20.40
2007,07,11,04,36,20.30
2007,07,11,04,37,20.30
2007,07,11,04,38,20.30
2007,07,11,04,39,20.20
2007,07,11,04,40,20.20
2007,07,11,04,41,20.20
2007,07,11,04,42,20.20
2007,07,11,04,43,20.20
2007,07,11,04,44,20.20
2007,07,11,04,45,20.20
2007,07,11,04,46,20.20
2007,07,11,04,47,20.20
2007,07,11,04,48,20.20
2007,07,11,04,49,20.20
2007,07,11,04,50,20.20
2007,07,11,04,51,20.20
2007,07,11,04,52,20.20
2007,07,11,04,53,20.20
2007,07,11,04,54,20.20
2007,07,11,04,55,20.20
2007,07,11,04,56,20.30
2007,07,11,04,57,20.30
2007,07,11,04,58,20.30
2007,07,11,04,59,20.40
2007,07,11,05,00,20.40
2007,07,11,05,01,20.40
2007,07,11,05,02,20.40
2007,07,11,05,03,20.40
2007,07,11,05,04,20.50
2007,07,11,05,05,20.50
2007,07,11,05,06,20.50
2007,07,11,05,07,20.50
2007,07,11,05,08,20.50
2007,07,11,05,09,20.50
2007,07,11,05,10,20.50
2007,07,11,05,11,20.50
2007,07,11,05,12,20.50
2007,07,11,05,13,20.40
2007,07,11,05,14,20.40
2007,07,11,05,15,20.40
2007,07,11,05,16,20.40
2007,07,11,05,17,20.40
2007,07,11,05,18,20.40
2007,07,11,05,19,20.40
2007,07,11,05,20,20.40
2007,07,11,05,21,20.40
2007,07,11,05,22,20.30
2007,07,11,05,23,20.30
2007,07,11,05,24,20.30
2007,07,11,05,25,20.30
2007,07,11,05,26,20.30
2007,07,11,05,27,20.20
2007,07,11,05,28,20.20
2007,07,11,05,29,20.20
2007,07,11,05,30,20.20
2007,07,11,05,31,20.20
2007,07,11,05,32,20.30
2007,07,11,05,33,20.30
2007,07,11,05,34,20.40
2007,07,11,05,35,20.50
2007,07,11,05,36,20.50
2007,07,11,05,37,20.60
2007,07,11,05,38,20.60
2007,07,11,05,39,20.80
2007,07,11,05,40,20.90
2007,07,11,05,41,21.00
2007,07,11,05,42,21.10
2007,07,11,05,43,21.20
2007,07,11,05,44,21.20
2007,07,11,05,45,21.30
2007,07,11,05,46,21.30
2007,07,11,05,47,21.30
2007,07,11,05,48,21.30
2007,07,11,05,49,21.30
2007,07,11,05,50,21.30
2007,07,11,05,51,21.30
2007,07,11,05,52,21.30
2007,07,11,05,53,21.30
2007,07,11,05,54,21.30
2007,07,11,05,55,21.30
2007,07,11,05,56,21.30
2007,07,11,05,57,21.30
2007,07,11,05,58,21.20
2007,07,11,05,59,21.20
2007,07,11,06,00,21.20
2007,07,11,06,01,21.20
2007,07,11,06,02,21.20
2007,07,11,06,03,21.20
2007,07,11,06,04,21.10
2007,07,11,06,05,21.10
2007,07,11,06,06,21.10
2007,07,11,06,07,21.10
2007,07,11,06,08,21.10
2007,07,11,06,09,21.00
2007,07,11,06,10,21.00
2007,07,11,06,11,21.00
2007,07,11,06,12,21.00
2007,07,11,06,13,20.90
2007,07,11,06,14,20.90
2007,07,11,06,15,20.90
2007,07,11,06,16,20.80
2007,07,11,06,17,20.80
2007,07,11,06,18,20.80
2007,07,11,06,19,20.70
2007,07,11,06,20,20.70
2007,07,11,06,21,20.70
2007,07,11,06,22,20.70
2007,07,11,06,23,20.70
2007,07,11,06,24,20.70
2007,07,11,06,25,20.70
2007,07,11,06,26,20.70
2007,07,11,06,27,20.70
2007,07,11,06,28,20.70
2007,07,11,06,29,20.80
2007,07,11,06,30,20.80
2007,07,11,06,31,20.80
2007,07,11,06,32,20.80
2007,07,11,06,33,20.90
2007,07,11,06,34,20.90
2007,07,11,06,35,20.90
2007,07,11,06,36,21.00
2007,07,11,06,37,21.00
2007,07,11,06,38,21.00
2007,07,11,06,39,21.00
2007,07,11,06,40,21.10
2007,07,11,06,41,21.10
2007,07,11,06,42,21.10
2007,07,11,06,43,21.10
2007,07,11,06,44,21.00
2007,07,11,06,45,21.00
2007,07,11,06,46,20.90
2007,07,11,06,47,20.80
2007,07,11,06,48,20.80
2007,07,11,06,49,20.70
2007,07,11,06,50,20.70
2007,07,11,06,51,20.70
2007,07,11,06,52,20.70
2007,07,11,06,53,20.70
2007,07,11,06,54,20.70
2007,07,11,06,55,20.70
2007,07,11,06,56,20.70
2007,07,11,06,57,20.70
2007,07,11,06,58,20.70
2007,07,11,06,59,20.70
2007,07,11,07,00,20.70
2007,07,11,07,01,20.60
2007,07,11,07,02,20.60
2007,07,11,07,03,20.60
2007,07,11,07,04,20.60
2007,07,11,07,05,20.60
2007,07,11,07,06,20.60
2007,07,11,07,07,20.60
2007,07,11,07,08,20.70
2007,07,11,07,09,20.70
2007,07,11,07,10,20.80
2007,07,11,07,11,20.80
2007,07,11,07,12,20.80
2007,07,11,07,13,20.90
2007,07,11,07,14,20.90
2007,07,11,07,15,20.90
2007,07,11,07,16,21.00
2007,07,11,07,17,21.00
2007,07,11,07,18,21.00
2007,07,11,07,19,21.00
2007,07,11,07,20,21.00
2007,07,11,07,21,21.10
2007,07,11,07,22,21.10
2007,07,11,07,23,21.20
2007,07,11,07,24,21.20
2007,07,11,07,25,21.30
2007,07,11,07,26,21.30
2007,07,11,07,27,21.30
2007,07,11,07,28,21.40
2007,07,11,07,29,21.60
2007,07,11,07,30,21.60
2007,07,11,07,31,21.80
2007,07,11,07,32,21.80
2007,07,11,07,33,21.90
2007,07,11,07,34,22.00
2007,07,11,07,35,22.10
2007,07,11,07,36,22.20
2007,07,11,07,37,22.30
2007,07,11,07,38,22.30
2007,07,11,07,39,22.40
2007,07,11,07,40,22.50
2007,07,11,07,41,22.60
2007,07,11,07,42,22.60
2007,07,11,07,43,22.70
2007,07,11,07,44,22.70
2007,07,11,07,45,22.80
2007,07,11,07,46,22.80
2007,07,11,07,47,22.90
2007,07,11,07,48,22.90
2007,07,11,07,49,22.90
2007,07,11,07,50,22.90
2007,07,11,07,51,22.90
2007,07,11,07,52,22.90
2007,07,11,07,53,22.90
2007,07,11,07,54,23.10
2007,07,11,07,55,23.10
2007,07,11,07,56,23.10
2007,07,11,07,57,23.20
2007,07,11,07,58,23.20
2007,07,11,07,59,23.20
2007,07,11,08,00,23.20
2007,07,11,08,01,23.20
2007,07,11,08,02,23.20
2007,07,11,08,03,23.30
2007,07,11,08,04,23.30
2007,07,11,08,05,23.30
2007,07,11,08,06,23.30
2007,07,11,08,07,23.30
2007,07,11,08,08,23.30
2007,07,11,08,09,23.30
2007,07,11,08,10,23.20
2007,07,11,08,11,23.20
2007,07,11,08,12,23.20
2007,07,11,08,13,23.10
2007,07,11,08,14,23.10
2007,07,11,08,15,22.90
2007,07,11,08,16,22.90
2007,07,11,08,17,22.90
2007,07,11,08,18,22.90
2007,07,11,08,19,22.80
2007,07,11,08,20,22.80
2007,07,11,08,21,22.70
2007,07,11,08,22,22.70
2007,07,11,08,23,22.70
2007,07,11,08,24,22.70
2007,07,11,08,25,22.70
2007,07,11,08,26,22.60
2007,07,11,08,27,22.60
2007,07,11,08,28,22.60
2007,07,11,08,29,22.50
2007,07,11,08,30,22.50
2007,07,11,08,31,22.40
2007,07,11,08,32,22.40
2007,07,11,08,33,22.40
2007,07,11,08,34,22.40
2007,07,11,08,35,22.40
2007,07,11,08,36,22.40
2007,07,11,08,37,22.40
2007,07,11,08,38,22.40
2007,07,11,08,39,22.50
2007,07,11,08,40,22.60
2007,07,11,08,41,22.60
2007,07,11,08,42,22.60
2007,07,11,08,43,22.70
2007,07,11,08,44,22.70
2007,07,11,08,45,22.60
2007,07,11,08,46,22.60
2007,07,11,08,47,22.60
2007,07,11,08,48,22.70
2007,07,11,08,49,22.70
2007,07,11,08,50,22.70
2007,07,11,08,51,22.80
2007,07,11,08,52,22.80
2007,07,11,08,53,22.80
2007,07,11,08,54,22.90
2007,07,11,08,55,22.90
2007,07,11,08,56,22.90
2007,07,11,08,57,22.90
2007,07,11,08,58,22.90
2007,07,11,08,59,22.90
2007,07,11,09,00,22.90
2007,07,11,09,01,22.90
2007,07,11,09,02,22.90
2007,07,11,09,03,22.90
2007,07,11,09,04,22.90
2007,07,11,09,05,22.90
2007,07,11,09,06,22.90
2007,07,11,09,07,22.90
2007,07,11,09,08,22.90
2007,07,11,09,09,22.90
2007,07,11,09,10,22.90
2007,07,11,09,11,22.90
2007,07,11,09,12,22.90
2007,07,11,09,13,22.90
2007,07,11,09,14,22.90
2007,07,11,09,15,22.90
2007,07,11,09,16,22.90
2007,07,11,09,17,22.90
2007,07,11,09,18,22.90
2007,07,11,09,19,23.00
2007,07,11,09,20,23.10
2007,07,11,09,21,23.20
2007,07,11,09,22,23.30
2007,07,11,09,23,23.30
2007,07,11,09,24,23.40
2007,07,11,09,25,23.40
2007,07,11,09,26,23.50
2007,07,11,09,27,23.60
2007,07,11,09,28,23.70
2007,07,11,09,29,23.80
2007,07,11,09,30,23.90
2007,07,11,09,31,24.00
2007,07,11,09,32,24.10
2007,07,11,09,33,24.30
2007,07,11,09,34,24.40
2007,07,11,09,35,24.60
2007,07,11,09,36,24.80
2007,07,11,09,37,24.90
2007,07,11,09,38,25.10
2007,07,11,09,39,25.30
2007,07,11,09,40,25.40
2007,07,11,09,41,25.60
2007,07,11,09,42,25.90
2007,07,11,09,43,26.00
2007,07,11,09,44,26.20
2007,07,11,09,45,26.40
2007,07,11,09,46,26.50
2007,07,11,09,47,26.60
2007,07,11,09,48,26.60
2007,07,11,09,49,26.60
2007,07,11,09,50,26.60
2007,07,11,09,51,26.60
2007,07,11,09,52,26.60
2007,07,11,09,53,26.40
2007,07,11,09,54,26.20
2007,07,11,09,55,25.90
2007,07,11,09,56,25.80
2007,07,11,09,57,25.70
2007,07,11,09,58,25.70
2007,07,11,09,59,25.70
2007,07,11,10,00,25.70
2007,07,11,10,01,25.80
2007,07,11,10,02,25.90
2007,07,11,10,03,26.00
2007,07,11,10,04,26.10
2007,07,11,10,05,26.50
2007,07,11,10,06,26.60
2007,07,11,10,07,27.10
2007,07,11,10,08,27.30
2007,07,11,10,09,27.60
2007,07,11,10,10,27.80
2007,07,11,10,11,28.00
2007,07,11,10,12,28.30
2007,07,11,10,13,28.40
2007,07,11,10,14,28.60
2007,07,11,10,15,28.70
2007,07,11,10,16,28.90
2007,07,11,10,17,29.00
2007,07,11,10,18,29.10
2007,07,11,10,19,29.20
2007,07,11,10,20,29.30
2007,07,11,10,21,29.40
2007,07,11,10,22,29.40
2007,07,11,10,23,29.40
2007,07,11,10,24,29.40
2007,07,11,10,25,29.40
2007,07,11,10,26,29.40
2007,07,11,10,27,29.40
2007,07,11,10,28,29.40
2007,07,11,10,29,29.40
2007,07,11,10,30,29.30
2007,07,11,10,31,29.30
2007,07,11,10,32,29.30
2007,07,11,10,33,29.30
2007,07,11,10,34,29.30
2007,07,11,10,35,29.30
2007,07,11,10,36,29.30
2007,07,11,10,37,29.40
2007,07,11,10,38,29.40
2007,07,11,10,39,29.50
2007,07,11,10,40,29.50
2007,07,11,10,41,29.60
2007,07,11,10,42,29.60
2007,07,11,10,43,29.70
2007,07,11,10,44,29.80
2007,07,11,10,45,29.80
2007,07,11,10,46,29.80
2007,07,11,10,47,29.90
2007,07,11,10,48,29.90
2007,07,11,10,49,30.00
2007,07,11,10,50,30.10
2007,07,11,10,51,30.00
2007,07,11,10,52,29.90
2007,07,11,10,53,29.90
2007,07,11,10,54,30.00
2007,07,11,10,55,30.10
2007,07,11,10,56,30.10
2007,07,11,10,57,30.10
2007,07,11,10,58,30.10
2007,07,11,10,59,30.20
2007,07,11,11,00,30.20
2007,07,11,11,01,30.20
2007,07,11,11,02,30.20
2007,07,11,11,03,30.20
2007,07,11,11,04,30.20
2007,07,11,11,05,30.20
2007,07,11,11,06,30.20
2007,07,11,11,07,30.20
2007,07,11,11,08,30.30
2007,07,11,11,09,30.30
2007,07,11,11,10,30.30
2007,07,11,11,11,30.30
2007,07,11,11,12,30.30
2007,07,11,11,13,30.30
2007,07,11,11,14,30.20
2007,07,11,11,15,30.10
2007,07,11,11,16,30.00
2007,07,11,11,17,30.10
2007,07,11,11,18,30.20
2007,07,11,11,19,30.30
2007,07,11,11,20,30.30
2007,07,11,11,21,30.50
2007,07,11,11,22,30.60
2007,07,11,11,23,30.70
2007,07,11,11,24,30.70
2007,07,11,11,25,30.60
2007,07,11,11,26,30.40
2007,07,11,11,27,30.00
2007,07,11,11,28,29.70
2007,07,11,11,29,29.50
2007,07,11,11,30,29.30
2007,07,11,11,31,29.20
2007,07,11,11,32,29.20
2007,07,11,11,33,29.20
2007,07,11,11,34,29.10
2007,07,11,11,35,28.90
2007,07,11,11,36,28.90
2007,07,11,11,37,28.90
2007,07,11,11,38,28.90
2007,07,11,11,39,28.90
2007,07,11,11,40,28.90
2007,07,11,11,41,29.00
2007,07,11,11,42,29.10
2007,07,11,11,43,29.20
2007,07,11,11,44,29.30
2007,07,11,11,45,29.40
2007,07,11,11,46,29.50
2007,07,11,11,47,29.60
2007,07,11,11,48,29.80
2007,07,11,11,49,30.00
2007,07,11,11,50,30.20
2007,07,11,11,51,30.40
2007,07,11,11,52,30.60
2007,07,11,11,53,30.70
2007,07,11,11,54,30.80
2007,07,11,11,55,30.90
2007,07,11,11,56,31.00
2007,07,11,11,57,31.20
2007,07,11,11,58,31.30
2007,07,11,11,59,31.40
2007,07,11,12,00,31.60
2007,07,11,12,01,31.80
2007,07,11,12,02,31.90
2007,07,11,12,03,32.00
2007,07,11,12,04,32.10
2007,07,11,12,05,31.90
2007,07,11,12,06,32.00
2007,07,11,12,07,32.10
2007,07,11,12,08,32.20
2007,07,11,12,09,32.30
2007,07,11,12,10,32.30
2007,07,11,12,11,32.30
2007,07,11,12,12,32.10
2007,07,11,12,13,31.60
2007,07,11,12,14,31.10
2007,07,11,12,15,30.70
2007,07,11,12,16,30.40
2007,07,11,12,17,30.10
2007,07,11,12,18,29.80
2007,07,11,12,19,29.70
2007,07,11,12,20,29.60
2007,07,11,12,21,29.50
2007,07,11,12,22,29.50
2007,07,11,12,23,29.40
2007,07,11,12,24,29.40
2007,07,11,12,25,29.20
2007,07,11,12,26,29.20
2007,07,11,12,27,29.20
2007,07,11,12,28,29.10
2007,07,11,12,29,29.20
2007,07,11,12,30,29.30
2007,07,11,12,31,29.40
2007,07,11,12,32,29.40
2007,07,11,12,33,29.30
2007,07,11,12,34,29.10
2007,07,11,12,35,28.90
2007,07,11,12,36,28.70
2007,07,11,12,37,28.60
2007,07,11,12,38,28.60
2007,07,11,12,39,28.60
2007,07,11,12,40,28.60
2007,07,11,12,41,28.60
2007,07,11,12,42,28.60
2007,07,11,12,43,28.60
2007,07,11,12,44,28.70
2007,07,11,12,45,28.70
2007,07,11,12,46,28.80
2007,07,11,12,47,28.90
2007,07,11,12,48,29.00
2007,07,11,12,49,29.10
2007,07,11,12,50,29.10
2007,07,11,12,51,29.20
2007,07,11,12,52,29.20
2007,07,11,12,53,29.30
2007,07,11,12,54,29.30
2007,07,11,12,55,29.20
2007,07,11,12,56,29.20
2007,07,11,12,57,28.90
2007,07,11,12,58,28.90
2007,07,11,12,59,28.90
2007,07,11,13,00,28.80
2007,07,11,13,01,28.80
2007,07,11,13,02,28.80
2007,07,11,13,03,28.80
2007,07,11,13,04,28.90
2007,07,11,13,05,29.00
2007,07,11,13,06,29.10
2007,07,11,13,07,29.30
2007,07,11,13,08,29.30
2007,07,11,13,09,29.30
2007,07,11,13,10,29.40
2007,07,11,13,11,29.50
2007,07,11,13,12,29.50
2007,07,11,13,13,29.40
2007,07,11,13,14,29.30
2007,07,11,13,15,29.30
2007,07,11,13,16,29.40
2007,07,11,13,17,29.60
2007,07,11,13,18,29.60
2007,07,11,13,19,29.60
2007,07,11,13,20,29.60
2007,07,11,13,21,29.60
2007,07,11,13,22,29.60
2007,07,11,13,23,29.80
2007,07,11,13,24,29.90
2007,07,11,13,25,30.00
2007,07,11,13,26,30.20
2007,07,11,13,27,30.30
2007,07,11,13,28,30.50
2007,07,11,13,29,30.60
2007,07,11,13,30,30.50
2007,07,11,13,31,30.30
2007,07,11,13,32,30.10
2007,07,11,13,33,29.90
2007,07,11,13,34,29.80
2007,07,11,13,35,29.70
2007,07,11,13,36,29.80
2007,07,11,13,37,29.90
2007,07,11,13,38,30.00
2007,07,11,13,39,30.10
2007,07,11,13,40,30.20
2007,07,11,13,41,30.30
2007,07,11,13,42,30.50
2007,07,11,13,43,30.70
2007,07,11,13,44,30.80
2007,07,11,13,45,31.00
2007,07,11,13,46,31.10
2007,07,11,13,47,31.20
2007,07,11,13,48,31.30
2007,07,11,13,49,31.50
2007,07,11,13,50,31.70
2007,07,11,13,51,31.90
2007,07,11,13,52,32.10
2007,07,11,13,53,32.20
2007,07,11,13,54,32.40
2007,07,11,13,55,32.30
2007,07,11,13,56,32.20
2007,07,11,13,57,31.90
2007,07,11,13,58,31.60
2007,07,11,13,59,31.40
2007,07,11,14,00,31.10
2007,07,11,14,01,30.90
2007,07,11,14,02,30.70
2007,07,11,14,03,30.50
2007,07,11,14,04,30.40
2007,07,11,14,05,30.40
2007,07,11,14,06,30.40
2007,07,11,14,07,30.40
2007,07,11,14,08,30.50
2007,07,11,14,09,30.60
2007,07,11,14,10,30.60
2007,07,11,14,11,30.40
2007,07,11,14,12,30.30
2007,07,11,14,13,30.30
2007,07,11,14,14,30.20
2007,07,11,14,15,30.10
2007,07,11,14,16,30.00
2007,07,11,14,17,29.90
2007,07,11,14,18,29.90
2007,07,11,14,19,29.80
2007,07,11,14,20,29.80
2007,07,11,14,21,29.80
2007,07,11,14,22,29.70
2007,07,11,14,23,29.70
2007,07,11,14,24,29.70
2007,07,11,14,25,29.70
2007,07,11,14,26,29.80
2007,07,11,14,27,29.80
2007,07,11,14,28,29.90
2007,07,11,14,29,29.90
2007,07,11,14,30,29.80
2007,07,11,14,31,29.70
2007,07,11,14,32,29.60
2007,07,11,14,33,29.60
2007,07,11,14,34,29.60
2007,07,11,14,35,29.60
2007,07,11,14,36,29.70
2007,07,11,14,37,29.80
2007,07,11,14,38,29.90
2007,07,11,14,39,29.80
2007,07,11,14,40,29.90
2007,07,11,14,41,30.00
2007,07,11,14,42,30.10
2007,07,11,14,43,30.00
2007,07,11,14,44,29.90
2007,07,11,14,45,30.00
2007,07,11,14,46,30.10
2007,07,11,14,47,30.10
2007,07,11,14,48,30.20
2007,07,11,14,49,30.30
2007,07,11,14,50,30.40
2007,07,11,14,51,30.60
2007,07,11,14,52,30.70
2007,07,11,14,53,30.90
2007,07,11,14,54,31.00
2007,07,11,14,55,30.90
2007,07,11,14,56,30.90
2007,07,11,14,57,30.80
2007,07,11,14,58,30.90
2007,07,11,14,59,31.00
2007,07,11,15,00,31.00
2007,07,11,15,01,31.00
2007,07,11,15,02,31.00
2007,07,11,15,03,31.10
2007,07,11,15,04,31.20
2007,07,11,15,05,31.10
2007,07,11,15,06,31.00
2007,07,11,15,07,30.80
2007,07,11,15,08,30.80
2007,07,11,15,09,30.70
2007,07,11,15,10,30.70
2007,07,11,15,11,30.80
2007,07,11,15,12,30.80
2007,07,11,15,13,30.80
2007,07,11,15,14,30.70
2007,07,11,15,15,30.60
2007,07,11,15,16,30.60
2007,07,11,15,17,30.60
2007,07,11,15,18,30.70
2007,07,11,15,19,30.80
2007,07,11,15,20,30.80
2007,07,11,15,21,30.90
2007,07,11,15,22,30.90
2007,07,11,15,23,30.90
2007,07,11,15,24,30.90
2007,07,11,15,25,30.90
2007,07,11,15,26,30.90
2007,07,11,15,27,31.00
2007,07,11,15,28,31.00
2007,07,11,15,29,31.10
2007,07,11,15,30,31.10
2007,07,11,15,31,31.10
2007,07,11,15,32,31.10
2007,07,11,15,33,31.10
2007,07,11,15,34,31.20
2007,07,11,15,35,31.40
2007,07,11,15,36,31.50
2007,07,11,15,37,31.70
2007,07,11,15,38,31.70
2007,07,11,15,39,32.20
2007,07,11,15,40,32.50
2007,07,11,15,41,32.70
2007,07,11,15,42,32.90
2007,07,11,15,43,33.10
2007,07,11,15,44,33.30
2007,07,11,15,45,33.40
2007,07,11,15,46,33.40
2007,07,11,15,47,33.70
2007,07,11,15,48,34.00
2007,07,11,15,49,34.20
2007,07,11,15,50,34.40
2007,07,11,15,51,34.60
2007,07,11,15,52,34.80
2007,07,11,15,53,34.90
2007,07,11,15,54,34.90
2007,07,11,15,55,34.90
2007,07,11,15,56,34.90
2007,07,11,15,57,34.90
2007,07,11,15,58,34.90
2007,07,11,15,59,34.90
2007,07,11,16,00,35.10
2007,07,11,16,01,35.10
2007,07,11,16,02,35.10
2007,07,11,16,03,35.20
2007,07,11,16,04,35.20
2007,07,11,16,05,35.10
2007,07,11,16,06,35.00
2007,07,11,16,07,34.90
2007,07,11,16,08,34.70
2007,07,11,16,09,34.60
2007,07,11,16,10,34.40
2007,07,11,16,11,34.30
2007,07,11,16,12,34.20
2007,07,11,16,13,34.20
2007,07,11,16,14,34.20
2007,07,11,16,15,34.20
2007,07,11,16,16,34.30
2007,07,11,16,17,34.30
2007,07,11,16,18,34.40
2007,07,11,16,19,34.50
2007,07,11,16,20,34.60
2007,07,11,16,21,34.70
2007,07,11,16,22,34.80
2007,07,11,16,23,34.90
2007,07,11,16,24,35.00
2007,07,11,16,25,35.20
2007,07,11,16,26,35.30
2007,07,11,16,27,35.30
2007,07,11,16,28,35.50
2007,07,11,16,29,35.60
2007,07,11,16,30,35.60
2007,07,11,16,31,35.60
2007,07,11,16,32,35.80
2007,07,11,16,33,35.90
2007,07,11,16,34,35.90
2007,07,11,16,35,35.90
2007,07,11,16,36,35.90
2007,07,11,16,37,35.70
2007,07,11,16,38,35.40
2007,07,11,16,39,35.00
2007,07,11,16,40,34.70
2007,07,11,16,41,34.40
2007,07,11,16,42,33.60
2007,07,11,16,43,33.20
2007,07,11,16,44,32.90
2007,07,11,16,45,32.70
2007,07,11,16,46,32.50
2007,07,11,16,47,32.20
2007,07,11,16,48,32.10
2007,07,11,16,49,32.00
2007,07,11,16,50,31.90
2007,07,11,16,51,31.90
2007,07,11,16,52,31.90
2007,07,11,16,53,31.90
2007,07,11,16,54,31.90
2007,07,11,16,55,31.90
2007,07,11,16,56,32.00
2007,07,11,16,57,32.10
2007,07,11,16,58,32.20
2007,07,11,16,59,32.30
2007,07,11,17,00,32.40
2007,07,11,17,01,32.50
2007,07,11,17,02,32.50
2007,07,11,17,03,32.50
2007,07,11,17,04,32.50
2007,07,11,17,05,32.20
2007,07,11,17,06,32.00
2007,07,11,17,07,31.60
2007,07,11,17,08,31.20
2007,07,11,17,09,30.90
2007,07,11,17,10,30.60
2007,07,11,17,11,30.40
2007,07,11,17,12,30.30
2007,07,11,17,13,30.20
2007,07,11,17,14,30.10
2007,07,11,17,15,30.10
2007,07,11,17,16,30.00
2007,07,11,17,17,30.00
2007,07,11,17,18,30.10
2007,07,11,17,19,30.10